Regional Weather Roundup
Issued by NWS

Home | Current Version | Previous Version | Graphics & Text | Print | Product List | Glossary On
Versions: 1 2 3 4 5 6 7 8 9 10 11 12 13 14 15 16 17 18 19 20 21 22 23 24 25 26 27 28 29 30 31 32 33 34 35 36 37 38 39 40 41 42 43 44 45 46 47 48 49
000
ASUS45 KBOU 142007
RWRCO

WEATHER ROUNDUP FOR COLORADO
NATIONAL WEATHER SERVICE DENVER/BOULDER CO
200 PM MDT SUN SEP 14 2014

NOTE: "FAIR" INDICATES FEW OR NO CLOUDS BELOW 12000 FEET WITH NO
SIGNIFICANT WEATHER AND/OR OBSTRUCTIONS TO VISIBILITY.

COZ001>005-013-030-031-142100-
...NORTHWEST COLORADO...

CITY           SKY/WX    TMP DP  RH WIND       PRES   REMARKS
CRAIG          MOSUNNY   81  36  19 W17G29    30.14S
HAYDEN         MOSUNNY   73  32  21 W16G26    30.16F
MEEKER         MOSUNNY   78  33  19 W10       30.17F
MOUNT WERNER   NOT AVBL
STEAMBOAT SPGS MOSUNNY   73  35  25 SW10G17   30.18F
WALDEN         PTSUNNY   63  32  31 NW10G17   30.27S
$$

COZ006>008-011-142100-
...WEST CENTRAL VALLEYS...

CITY           SKY/WX    TMP DP  RH WIND       PRES   REMARKS
GRAND JUNCTION SUNNY     82  39  21 W7        30.09F
MONTROSE       MOSUNNY   83  34  17 N7        30.17F
EAGLE          MOSUNNY   79  34  19 SW22      30.20F
RIFLE          MOSUNNY   79  40  24 SW12      30.13F
DELTA          MOSUNNY   86  37  17 CALM      30.12F
NUCLA          MOSUNNY   81  37  21 SE3G16    30.21F
$$

COZ017>023-064>068-142100-
...SOUTHWEST COLORADO...

CITY           SKY/WX    TMP DP  RH WIND       PRES   REMARKS
DURANGO        MOSUNNY   77  35  21 CALM      30.23F
CORTEZ         SUNNY     81  42  25 SW8       30.19F
PAGOSA SPRINGS NOT AVBL
TELLURIDE      MOSUNNY   70  32  24 W7        30.40S
WOLF CREEK PAS MOSUNNY   54  34  47 SW14G24   30.58F
$$

COZ009-010-012-014-032>034-037-058>063-142100-
...CENTRAL COLORADO...

CITY           SKY/WX    TMP DP  RH WIND       PRES   REMARKS
ASPEN          PTSUNNY   70  33  25 N9G21     30.28F
BUENA VISTA    CLOUDY    72  26  17 W12       30.28F
COPPER MTN     MOSUNNY   57  19  23 W22G30    30.57S
BERTHOUD PASS  FAIR      46  45  93 W28       30.59F
COTTONWOOD PAS PTSUNNY   68  21  17 CALM      30.42F
GUNNISON       MOSUNNY   70  36  28 W3        30.31F
KREMMLING      CLOUDY    77  21  12 SW20G29   30.22F
LEADVILLE      MOSUNNY   64  19  17 NW14G23   30.42F
MONARCH PASS   MOSUNNY   54  27  35 W26G37    30.69S
SALIDA         MOSUNNY   81  25  12 SW14G23   30.32F
SUNLIGHT       MOSUNNY   61  36  39 CALM      30.51F
WILKERSON PASS NOT AVBL
$$

COZ069>075-142100-
...SAN LUIS VALLEY/SANGRE DE CRISTO MOUNTAINS...

CITY           SKY/WX    TMP DP  RH WIND       PRES   REMARKS
ALAMOSA        SUNNY     76  27  16 NE5       30.28F
LA VETA PASS   NOT AVBL
SAGUACHE       NOT AVBL
$$

COZ035-036-038>040-142100-
...NORTHERN COLORADO FRONT RANGE...

CITY           SKY/WX    TMP DP  RH WIND       PRES   REMARKS
DENVER INTL AP MOSUNNY   85  33  15 SW14G23   30.07F
DMNS CITY PARK   N/A     85  33  15 SW2G9     30.06F
AURORA         PTSUNNY   82  29  14 W7        30.10F
FRONT RANGE AP MOSUNNY   84  30  14 W10G16    30.09F
ERIE MUNI ARPT MOSUNNY   86  29  13 SW5       30.04F
BOULDER MUN AP MOSUNNY   86  32  14 SW10      30.04F
CENTENNIAL     MOSUNNY   82  30  15 NE3       30.11F
BROOMFIELD     PTSUNNY   82  32  16 SE6       30.09F
FORT COLLINS   PTSUNNY   82  39  21 SW5       30.02F
LONGMONT       PTSUNNY   83  36  18 CALM      30.04S
$$

COZ041-046-047-076>085-087-088-142100-
...PIKES PEAK/PALMER DIVIDE AND SOUTHERN FOOTHILLS...

CITY           SKY/WX    TMP DP  RH WIND       PRES   REMARKS
COLO. SPRINGS  MOSUNNY   83  22  10 S7        30.15F
A. F. ACADEMY  MOSUNNY   81  26  13 N3        30.16F
ELLICOTT       NOT AVBL
FALCON         MOSUNNY   81  23  12 W9G16     30.22F
FORT CARSON    SUNNY     83  30  14 SE8       30.13F
LIMON          SUNNY     83  29  14 NW10G22   30.10F
MONUMENT HILL  SUNNY     77  28  16 CALM      30.21F
TRINIDAD       SUNNY     85  32  15 NE6       30.14F
$$

COZ042>045-048>051-090-091-142100-
...NORTHEAST COLORADO...

CITY           SKY/WX    TMP DP  RH WIND       PRES   REMARKS
GREELEY ARPT   MOSUNNY   86  41  20 SW9       30.01F
AKRON          SUNNY     81  41  24 S6        30.04F
BURLINGTON     SUNNY     78  56  46 SE10      30.05F
WRAY           MOSUNNY   79  56  45 SE8       30.02S
STERLING       SUNNY     79  55  44 S3        29.99F
HOLYOKE        MOSUNNY   77  55  47 S14       30.01F
FORT MORGAN    SUNNY     82  46  28 SE7       30.02F
$$

COZ086-089-092>099-142100-
...SOUTHEAST COLORADO...

CITY           SKY/WX    TMP DP  RH WIND       PRES   REMARKS
PUEBLO         SUNNY     88  26  10 CALM      30.05F
LA JUNTA       SUNNY     90  33  13 VRB5      30.03F
LAMAR          SUNNY     88  42  20 VRB5      30.00F
SPRINGFIELD      N/A     84  52  33 S9G20     30.06F
$$



USA.gov is the U.S. government's official web portal to all federal, state and local government web resources and services.